Weather History for Claremore, OK

Change the Weather History Date:

Friday, February 28, 2014

  Actual Average (KTUL) Record (KTUL)
Temperature  
Mean Temperature 38 °F 46 °F  
Max Temperature 44 °F 57 °F 82 °F (1972)
Min Temperature 32 °F 35 °F 6 °F (1962)
Degree Days  
Heating Degree Days 27 19  
Month to date heating degree days 638  
Since 1 July heating degree days 2911  
Moisture  
Dew Point 28 °F    
Average Humidity 67    
Maximum Humidity 100    
Minimum Humidity 45    
Precipitation  
Precipitation 0.08 in 0.08 in 2.00 in (1987)
Month to date precipitation 1.85  
Year to date precipitation 3.51  
Sea Level Pressure  
Sea Level Pressure 29.87 in    
Wind  
Wind Speed 9 mph (SE)    
Max Wind Speed 18 mph    
Max Gust Speed 24 mph    
Visibility 10 miles    
Events Rain    
T = Trace of Precipitation, MM = Missing Value Source: NWS Daily Summary

Daily Weather History Graph

Daily Weather History Graph

Search for Another Location

Airport:

Trip Planner

Search our weather history database for the weather conditions in past years. The results will help you decide how hot, cold, wet, or windy it might be!

Date:

Astronomy

Feb. 28, 2014 Rise Set
Actual Time 6:53 AM CST 6:15 PM CST
Civil Twilight 6:27 AM CST 6:41 PM CST
Nautical Twilight 5:57 AM CST 7:11 PM CST
Astronomical Twilight 5:28 AM CST 7:41 PM CST
Moon 6:08 AM CST (2/28) 5:53 PM CST (2/28)
Length of Visible Light 12h 13m
Length of Day
11h 22m
Waning Crescent, 1% of the Moon is Illuminated
Feb 28
Waning Crescent
Mar 1
New
Mar 8
First Quarter
Mar 16
Full
Mar 23
Last Quarter

Hourly Weather History & Observations

Time (CST) Temp. Windchill Dew Point Humidity Pressure Visibility Wind Dir Wind Speed Gust Speed Precip Events Conditions
12:15 AM 33.8 °F 26.4 °F 19.4 °F 56% 29.89 in 10.0 mi SE 9.2 mph - N/A   Clear
12:35 AM 35.6 °F 28.0 °F 21.2 °F 56% 29.89 in 10.0 mi SE 10.4 mph - N/A   Clear
12:55 AM 35.6 °F 29.2 °F 21.2 °F 56% 29.88 in 10.0 mi SE 8.1 mph - N/A   Clear
1:15 AM 35.6 °F 30.7 °F 19.4 °F 52% 29.88 in 10.0 mi SE 5.8 mph - N/A   Clear
1:35 AM 33.8 °F 27.0 °F 19.4 °F 56% 29.88 in 10.0 mi SE 8.1 mph - N/A   Clear
1:55 AM 33.8 °F 27.0 °F 21.2 °F 60% 29.88 in 10.0 mi SE 8.1 mph - N/A   Clear
2:15 AM 33.8 °F 26.4 °F 19.4 °F 56% 29.87 in 10.0 mi SE 9.2 mph - N/A   Clear
2:35 AM 33.8 °F 27.7 °F 19.4 °F 56% 29.86 in 10.0 mi SE 6.9 mph - N/A   Clear
2:55 AM 32.0 °F 24.8 °F 19.4 °F 60% 29.84 in 10.0 mi ESE 8.1 mph - N/A   Clear
3:20 AM 32.0 °F 25.6 °F 19.4 °F 60% 29.84 in 10.0 mi ESE 6.9 mph - N/A   Clear
3:35 AM 33.8 °F 27.7 °F 19.4 °F 56% 29.84 in 10.0 mi SE 6.9 mph - N/A   Clear
3:55 AM 33.8 °F 27.7 °F 19.4 °F 56% 29.83 in 10.0 mi SE 6.9 mph - N/A   Clear
4:15 AM 33.8 °F 26.4 °F 19.4 °F 56% 29.83 in 10.0 mi ESE 9.2 mph - N/A   Clear
4:35 AM 35.6 °F 29.9 °F 19.4 °F 52% 29.84 in 10.0 mi SE 6.9 mph - N/A   Clear
4:55 AM 33.8 °F 27.0 °F 21.2 °F 60% 29.86 in 10.0 mi SE 8.1 mph - N/A   Clear
5:15 AM 33.8 °F 27.7 °F 19.4 °F 56% 29.84 in 10.0 mi SE 6.9 mph - N/A   Clear
5:35 AM 33.8 °F 26.4 °F 19.4 °F 56% 29.83 in 10.0 mi ESE 9.2 mph - N/A   Clear
5:55 AM 33.8 °F 25.3 °F 19.4 °F 56% 29.81 in 10.0 mi ESE 11.5 mph - N/A   Clear
6:15 AM 35.6 °F 26.2 °F 19.4 °F 52% 29.78 in 10.0 mi ESE 15.0 mph - N/A   Clear
6:35 AM 37.4 °F 27.8 °F 19.4 °F 48% 29.77 in 10.0 mi ESE 17.3 mph - N/A   Clear
6:55 AM 37.4 °F 28.5 °F 19.4 °F 48% 29.76 in 10.0 mi ESE 15.0 mph 24.2 mph N/A   Clear
7:15 AM 37.4 °F 28.9 °F 19.4 °F 48% 29.76 in 10.0 mi SE 13.8 mph 19.6 mph N/A   Clear
7:35 AM 39.2 °F 31.6 °F 19.4 °F 45% 29.79 in 10.0 mi SE 12.7 mph 17.3 mph N/A   Clear
7:55 AM 41.0 °F 33.5 °F 21.2 °F 45% 29.80 in 10.0 mi SSE 13.8 mph 20.7 mph N/A   Light Drizzle
8:15 AM 39.2 °F 31.2 °F 23.0 °F 52% 29.83 in 10.0 mi SSE 13.8 mph - N/A Rain Light Rain
8:35 AM 37.4 °F 32.1 °F 28.4 °F 70% 29.84 in 10.0 mi SSE 6.9 mph - N/A Rain Light Rain
8:55 AM 37.4 °F 30.8 °F 28.4 °F 70% 29.84 in 10.0 mi SE 9.2 mph - N/A Rain Light Rain
9:15 AM 37.4 °F 31.4 °F 28.4 °F 70% 29.84 in 10.0 mi ESE 8.1 mph - N/A   Scattered Clouds
9:35 AM 37.4 °F 30.8 °F 30.2 °F 75% 29.83 in 10.0 mi ESE 9.2 mph - N/A Rain Light Rain
9:55 AM 37.4 °F 34.9 °F 32.0 °F 81% 29.85 in 2.0 mi SE 3.5 mph - 0.05 in Rain Rain
10:15 AM 37.4 °F 30.8 °F 32.0 °F 81% 29.85 in 10.0 mi SE 9.2 mph - N/A   Light Drizzle
10:35 AM 37.4 °F 30.3 °F 33.8 °F 87% 29.84 in 7.0 mi SE 10.4 mph - 0.03 in Rain Light Rain
10:55 AM 42.8 °F 34.8 °F 35.6 °F 76% 29.82 in 10.0 mi SE 17.3 mph 24.2 mph 0.03 in   Scattered Clouds
11:15 AM 42.8 °F 34.8 °F 33.8 °F 70% 29.84 in 10.0 mi SE 17.3 mph - N/A   Scattered Clouds
11:35 AM 44.6 °F 36.9 °F 33.8 °F 66% 29.83 in 10.0 mi SE 18.4 mph 21.9 mph N/A   Scattered Clouds
11:55 AM 44.6 °F 37.4 °F 33.8 °F 66% 29.83 in 10.0 mi SSE 16.1 mph 23.0 mph N/A   Scattered Clouds
12:15 PM 44.6 °F 37.4 °F 33.8 °F 66% 29.83 in 10.0 mi SE 16.1 mph 24.2 mph N/A   Scattered Clouds
12:35 PM 44.6 °F 37.4 °F 33.8 °F 66% 29.83 in 10.0 mi SE 16.1 mph 21.9 mph N/A   Scattered Clouds
12:55 PM 44.6 °F 38.8 °F 33.8 °F 66% 29.82 in 10.0 mi SE 11.5 mph 19.6 mph N/A   Mostly Cloudy
1:15 PM 44.6 °F 37.8 °F 32.0 °F 61% 29.82 in 10.0 mi SSE 15.0 mph - N/A   Overcast
1:35 PM 44.6 °F 38.4 °F 32.0 °F 61% 29.82 in 10.0 mi SSE 12.7 mph 18.4 mph N/A   Overcast
1:55 PM 44.6 °F 38.8 °F 32.0 °F 61% 29.82 in 10.0 mi SE 11.5 mph - N/A   Overcast
2:15 PM 44.6 °F 38.4 °F 32.0 °F 61% 29.81 in 10.0 mi ESE 12.7 mph - N/A   Overcast
2:35 PM 44.6 °F 38.8 °F 32.0 °F 61% 29.82 in 10.0 mi SE 11.5 mph - N/A   Overcast
2:55 PM 44.6 °F 38.4 °F 32.0 °F 61% 29.82 in 10.0 mi SE 12.7 mph - N/A   Mostly Cloudy
3:15 PM 44.6 °F 38.8 °F 32.0 °F 61% 29.83 in 10.0 mi SE 11.5 mph - N/A   Mostly Cloudy
3:35 PM 44.6 °F 39.2 °F 32.0 °F 61% 29.84 in 10.0 mi SE 10.4 mph - N/A   Mostly Cloudy
3:55 PM 44.6 °F 40.2 °F 32.0 °F 61% 29.84 in 10.0 mi SE 8.1 mph - N/A   Overcast
4:15 PM 44.6 °F 38.8 °F 32.0 °F 61% 29.83 in 10.0 mi SE 11.5 mph - N/A   Overcast
4:35 PM 44.6 °F 40.2 °F 32.0 °F 61% 29.85 in 10.0 mi SE 8.1 mph - N/A   Overcast
4:55 PM 44.6 °F 39.2 °F 32.0 °F 61% 29.86 in 10.0 mi SE 10.4 mph - N/A   Overcast
5:15 PM 44.6 °F 39.7 °F 33.8 °F 66% 29.86 in 10.0 mi SE 9.2 mph - N/A   Overcast
5:35 PM 44.6 °F 40.7 °F 33.8 °F 66% 29.87 in 10.0 mi SE 6.9 mph - N/A   Overcast
5:55 PM 44.6 °F 40.2 °F 33.8 °F 66% 29.87 in 10.0 mi SE 8.1 mph - N/A   Overcast
6:15 PM 44.6 °F 40.2 °F 33.8 °F 66% 29.87 in 10.0 mi ESE 8.1 mph - N/A   Overcast
6:35 PM 42.8 °F 37.5 °F 33.8 °F 70% 29.87 in 10.0 mi ESE 9.2 mph - N/A   Mostly Cloudy
6:55 PM 41.0 °F 37.1 °F 33.8 °F 76% 29.89 in 10.0 mi ESE 5.8 mph - N/A   Scattered Clouds
7:15 PM 39.2 °F 37.0 °F 32.0 °F 75% 29.91 in 10.0 mi East 3.5 mph - N/A   Scattered Clouds
7:35 PM 37.4 °F 33.8 °F 32.0 °F 81% 29.91 in 10.0 mi East 4.6 mph - N/A   Clear
7:55 PM 37.4 °F 34.9 °F 32.0 °F 81% 29.92 in 10.0 mi NE 3.5 mph - N/A   Clear
8:15 PM 35.6 °F 32.8 °F 32.0 °F 87% 29.93 in 10.0 mi ENE 3.5 mph - N/A   Clear
8:35 PM 35.6 °F - 32.0 °F 87% 29.95 in 10.0 mi Calm Calm - N/A   Clear
8:55 PM 35.6 °F - 32.0 °F 87% 29.96 in 10.0 mi Calm Calm - N/A   Clear
9:15 PM 33.8 °F 30.8 °F 32.0 °F 93% 29.97 in 10.0 mi East 3.5 mph - N/A   Clear
9:35 PM 32.0 °F 28.7 °F 30.2 °F 93% 29.98 in 10.0 mi ENE 3.5 mph - N/A   Clear
9:55 PM 32.0 °F 27.5 °F 30.2 °F 93% 29.98 in 10.0 mi ENE 4.6 mph - N/A   Clear
10:15 PM 33.8 °F 30.8 °F 32.0 °F 93% 29.99 in 10.0 mi ENE 3.5 mph - N/A   Clear
10:35 PM 33.8 °F - 32.0 °F 93% 30.00 in 7.0 mi Calm Calm - N/A   Clear
10:55 PM 33.8 °F - 32.0 °F 93% 30.01 in 7.0 mi Calm Calm - N/A   Clear
11:15 PM 32.0 °F 28.7 °F 32.0 °F 100% 30.01 in 7.0 mi NNE 3.5 mph - N/A   Clear
11:35 PM 32.0 °F - 30.2 °F 93% 30.01 in 7.0 mi Calm Calm - N/A   Clear
11:55 PM 32.0 °F - 30.2 °F 93% 30.02 in 7.0 mi Calm Calm - N/A   Clear